Date String (YYYY-MM-DD hh:mm:ss) UTC,Instrument flags,Ambient pressure (hPa),Sample flow (lpm),Bypass flow (lpm),Sample temperature (°C),Ambient temperature (°C),ASC tube jacket temperature (°C),LED temperature (°C),Box temperature (°C),Sample RH (%),Mass concentration (μg/m³),Mass concentration (μg/m³)
DateTimeUTC,F1_M11,P_M11,Q1_M11,Q2_M11,T1_M11,T2_M11,T3_M11,T4_M11,T5_M11,U1_M11,X0_M11,X2_M11
2021-08-15 12:00:00,,0831.2,5.00,0.00,29.7,28.5,00.0,38.8,31.4,19.5,0015.35,0009.14
2021-08-15 12:01:00,,0831.2,5.01,0.00,29.7,28.6,00.0,38.8,31.4,19.4,0015.90,0009.11
2021-08-15 12:02:00,,0831.2,5.00,0.00,29.7,28.6,00.0,38.8,31.5,19.0,0015.29,0009.04
2021-08-15 12:03:00,,0831.2,4.99,0.00,29.7,28.7,00.0,38.8,31.5,19.3,0015.21,0009.01
2021-08-15 12:04:00,,0831.2,5.01,0.00,29.8,28.7,00.0,38.8,31.5,19.5,0015.90,0009.02
2021-08-15 12:05:00,,0831.1,4.99,0.00,29.8,28.8,00.0,38.8,31.6,19.3,0016.14,0009.04
2021-08-15 12:06:00,,0831.2,5.00,0.00,29.8,28.8,00.0,38.8,31.6,19.1,0016.28,0009.05
2021-08-15 12:07:00,,0831.1,5.00,0.00,29.8,28.8,00.0,38.9,31.6,19.8,0016.31,0009.05
2021-08-15 12:08:00,,0831.2,4.99,0.00,29.9,28.9,00.0,38.9,31.6,19.3,0016.03,0009.01
2021-08-15 12:09:00,,0831.2,5.01,0.00,29.9,28.9,00.0,38.9,31.7,18.8,0015.21,0008.89
2021-08-15 12:10:00,,0831.2,4.99,0.00,29.9,28.9,00.0,38.9,31.7,18.5,0015.13,0008.85
2021-08-15 12:11:00,,0831.2,5.01,0.00,29.9,28.9,00.0,38.9,31.7,18.6,0014.88,0008.77
2021-08-15 12:12:00,,0831.2,4.99,0.00,30.0,29.0,00.0,38.9,31.7,18.3,0013.76,0008.74
2021-08-15 12:13:00,,0831.2,4.99,0.00,30.0,29.0,00.0,39.0,31.7,18.3,0013.65,0008.73
2021-08-15 12:14:00,,0831.2,5.00,0.00,30.0,29.0,00.0,39.0,31.8,18.5,0014.26,0008.72
2021-08-15 12:15:00,,0831.1,5.01,0.00,30.0,27.7,00.0,39.0,31.4,18.8,0014.80,0008.65
2021-08-15 12:16:00,,0831.0,5.00,0.00,29.8,26.3,00.0,38.9,31.0,19.0,0014.86,0008.65
2021-08-15 12:17:00,,0831.0,4.99,0.00,29.7,26.3,00.0,38.9,31.0,18.7,0014.89,0008.65
2021-08-15 12:18:00,,0831.1,5.01,0.00,29.6,26.7,00.0,38.9,31.1,18.8,0014.92,0008.59
2021-08-15 12:19:00,,0831.1,5.00,0.00,29.6,27.1,00.0,38.8,31.1,18.8,0014.90,0008.54
2021-08-15 12:20:00,,0831.0,5.01,0.00,29.6,27.4,00.0,38.8,31.2,18.8,0015.04,0008.56
2021-08-15 12:21:00,,0831.0,5.00,0.00,29.6,27.7,00.0,38.8,31.2,18.8,0015.02,0008.55
2021-08-15 12:22:00,,0831.0,5.01,0.00,29.6,27.9,00.0,38.8,31.3,18.8,0014.88,0008.56
2021-08-15 12:23:00,,0831.0,4.99,0.00,29.6,28.1,00.0,38.8,31.3,18.9,0014.97,0008.56
2021-08-15 12:24:00,,0831.0,4.99,0.00,29.6,28.2,00.0,38.8,31.4,19.2,0015.08,0008.57
2021-08-15 12:25:00,,0831.1,5.02,0.00,29.6,28.3,00.0,38.8,31.4,19.7,0014.73,0008.59
2021-08-15 12:26:00,,0831.1,4.99,0.00,29.7,28.4,00.0,38.8,31.4,20.0,0013.77,0008.63
2021-08-15 12:27:00,,0831.1,5.02,0.00,29.7,28.5,00.0,38.8,31.5,20.3,0014.28,0008.66
2021-08-15 12:28:00,,0831.1,4.99,0.00,29.7,28.6,00.0,38.8,31.5,20.3,0014.43,0008.70
2021-08-15 12:29:00,,0831.2,5.01,0.00,29.7,28.6,00.0,38.8,31.5,20.3,0014.65,0008.78
2021-08-15 12:30:00,,0831.2,4.99,0.00,29.8,28.7,00.0,38.8,31.5,19.4,0014.90,0008.81
2021-08-15 12:31:00,,0831.2,5.00,0.00,29.8,28.7,00.0,38.8,31.6,19.1,0014.94,0008.82
2021-08-15 12:32:00,,0831.2,5.00,0.00,29.8,28.8,00.0,38.8,31.6,19.0,0014.98,0008.85
2021-08-15 12:33:00,,0831.2,4.99,0.00,29.8,28.8,00.0,38.8,31.6,19.1,0015.04,0008.90
2021-08-15 12:34:00,,0831.2,5.01,0.00,29.9,28.8,00.0,38.9,31.6,19.1,0014.96,0008.91
2021-08-15 12:35:00,,0831.2,5.00,0.00,29.9,28.9,00.0,38.9,31.6,19.1,0015.13,0008.92
2021-08-15 12:36:00,,0831.2,4.99,0.00,29.9,28.9,00.0,38.9,31.7,19.2,0015.48,0008.94
2021-08-15 12:37:00,,0831.2,4.99,0.00,29.9,28.9,00.0,38.9,31.7,19.1,0015.39,0008.90
2021-08-15 12:38:00,,0831.1,5.01,0.00,29.9,29.0,00.0,38.9,31.8,19.3,0014.63,0008.89
2021-08-15 12:39:00,,0831.1,4.99,0.00,30.0,29.0,00.0,39.0,31.8,19.4,0014.57,0008.88
2021-08-15 12:40:00,,0831.1,5.01,0.00,30.0,29.0,00.0,39.0,31.8,19.6,0014.37,0008.90
2021-08-15 12:41:00,,0831.1,4.99,0.00,30.0,29.0,00.0,39.0,31.8,19.3,0014.35,0008.93
2021-08-15 12:42:00,,0831.0,5.01,0.00,30.0,28.9,00.0,39.0,31.8,19.3,0014.38,0008.97
2021-08-15 12:43:00,,0831.0,5.00,0.00,29.9,27.2,00.0,39.0,31.3,19.4,0014.59,0009.02
2021-08-15 12:44:00,,0831.0,5.00,0.00,29.8,26.3,00.0,38.9,31.0,19.5,0015.58,0009.06
2021-08-15 12:45:00,,0831.0,5.01,0.00,29.7,26.5,00.0,38.9,31.0,19.6,0016.23,0009.06
2021-08-15 12:46:00,,0831.0,5.00,0.00,29.6,26.9,00.0,38.9,31.1,19.9,0016.17,0009.13
2021-08-15 12:47:00,,0831.0,5.00,0.00,29.6,27.2,00.0,38.8,31.2,19.9,0015.75,0009.14
2021-08-15 12:48:00,,0831.0,4.98,0.00,29.6,27.5,00.0,38.8,31.2,20.0,0016.30,0009.15
2021-08-15 12:49:00,,0831.0,5.02,0.00,29.6,27.8,00.0,38.8,31.3,19.9,0016.63,0009.13
2021-08-15 12:50:00,,0831.0,5.00,0.00,29.6,28.0,00.0,38.8,31.3,19.8,0016.50,0009.12
2021-08-15 12:51:00,,0831.0,5.00,0.00,29.7,28.2,00.0,38.8,31.4,19.8,0017.06,0009.12
2021-08-15 12:52:00,,0831.1,5.00,0.00,29.7,28.3,00.0,38.8,31.4,19.6,0017.07,0009.11
2021-08-15 12:53:00,,0831.1,4.99,0.00,29.7,28.4,00.0,38.8,31.4,19.5,0017.33,0009.12
2021-08-15 12:54:00,,0831.1,4.99,0.00,29.7,28.5,00.0,38.8,31.5,19.6,0017.63,0009.09
2021-08-15 12:55:00,,0831.0,5.01,0.00,29.7,28.6,00.0,38.8,31.5,19.3,0017.22,0009.05
2021-08-15 12:56:00,,0831.0,5.00,0.00,29.8,28.6,00.0,38.8,31.5,19.0,0017.06,0009.04
2021-08-15 12:57:00,,0831.1,5.01,0.00,29.8,28.7,00.0,38.8,31.6,18.9,0016.65,0008.98
2021-08-15 12:58:00,,0831.0,5.00,0.00,29.8,28.8,00.0,38.8,31.6,18.8,0016.60,0008.95
2021-08-15 12:59:00,,0831.0,5.00,0.00,29.8,28.8,00.0,38.8,31.6,19.0,0016.89,0008.92
